Temperature
1 0 -0 -1 -2 -3 -4 -4 -6 -6 -5 -5 -5 -5 -5 -6 -6 -6 -6 -6 -6 -6 -5 -5 -5 -5 -4 -4 -4 -4 -3 -3 -3 -2 -2 -1 -1 -0
-0 -1 -2 -3 -4 -4 -4 -5 -6 -6 -6 -6 -6 -6 -6 -6 -6 -6 -6 -6 -6 -6 -6 -6 -5 -5 -5 -5 -5 -5 -4 -4 -4 -3 -3 -2 -2 -1
-2 -3 -4 -4 -5 -5 -5 -6 -6 -6 -7 -6 -6 -6 -6 -6 -6 -6 -7 -7 -7 -7 -7 -7 -6 -6 -6 -6 -6 -5 -5 -5 -4 -4 -3 -3 -2 -2
-3 -4 -5 -5 -6 -6 -6 -7 -7 -7 -7 -7 -7 -7 -7 -7 -7 -7 -7 -8 -8 -8 -8 -7 -7 -7 -7 -7 -6 -6 -6 -6 -5 -5 -5 -4 -3 -3
-4 -5 -6 -6 -7 -7 -7 -7 -7 -7 -7 -7 -7 -7 -7 -7 -7 -8 -8 -8 -9 -9 -8 -8 -8 -8 -8 -7 -7 -7 -7 -7 -6 -6 -5 -5 -4 -3
-5 -6 -6 -7 -7 -8 -8 -8 -8 -8 -8 -8 -7 -7 -7 -7 -8 -8 -9 -9 -9 -9 -9 -9 -9 -9 -8 -8 -8 -8 -8 -8 -7 -6 -6 -5 -5 -4
-6 -6 -7 -7 -8 -8 -8 -8 -8 -8 -8 -8 -8 -7 -8 -8 -9 -9 -9 -9 -9 -9 -10 -10 -10 -10 -10 -9 -9 -9 -9 -8 -7 -7 -6 -6 -5 -4
-7 -7 -7 -8 -8 -8 -8 -8 -8 -8 -8 -8 -8 -8 -9 -9 -9 -10 -10 -10 -10 -10 -10 -10 -10 -10 -10 -10 -10 -9 -9 -8 -8 -7 -7 -6 -6 -5
-7 -8 -8 -9 -9 -9 -9 -8 -8 -8 -8 -8 -9 -9 -10 -10 -10 -10 -10 -10 -10 -10 -11 -11 -10 -10 -10 -10 -10 -9 -9 -8 -8 -8 -7 -7 -6 -6
-8 -9 -9 -9 -9 -9 -9 -8 -8 -9 -9 -10 -10 -10 -10 -10 -10 -10 -11 -11 -11 -11 -11 -11 -11 -10 -10 -9 -8 -8 -8 -8 -8 -7 -7 -7 -6 -6
-9 -9 -9 -9 -9 -9 -8 -9 -9 -10 -10 -10 -10 -10 -10 -11 -11 -11 -11 -11 -11 -11 -11 -11 -11 -11 -10 -9 -8 -8 -8 -8 -8 -8 -7 -7 -6 -6
-9 -9 -9 -10 -9 -9 -9 -10 -10 -10 -10 -10 -10 -10 -10 -10 -11 -11 -12 -12 -12 -11 -10 -11 -11 -11 -10 -9 -9 -9 -9 -9 -9 -8 -8 -7 -7 -6
-9 -10 -10 -10 -9 -10 -10 -11 -11 -10 -11 -11 -11 -11 -11 -11 -11 -11 -11 -11 -12 -11 -10 -10 -11 -10 -10 -10 -9 -9 -8 -8 -8 -7 -6 -6 -6 -6
-10 -10 -10 -10 -10 -11 -11 -11 -11 -11 -11 -12 -12 -12 -11 -11 -11 -11 -10 -10 -10 -10 -10 -10 -10 -10 -10 -10 -10 -8 -7 -7 -6 -5 -4 -4 -4 -4
-10 -10 -10 -11 -11 -11 -11 -11 -11 -12 -12 -12 -12 -12 -11 -11 -11 -11 -10 -10 -10 -9 -9 -9 -10 -10 -10 -10 -10 -8 -8 -5 -4 -4 -3 -3 -3 -2
-10 -11 -11 -11 -11 -11 -11 -11 -11 -12 -12 -12 -12 -11 -11 -11 -11 -11 -11 -10 -10 -9 -9 -9 -9 -9 -9 -8 -8 -8 -7 -7 -4 -3 -2 -2 -1 -1
-11 -11 -11 -12 -12 -11 -11 -11 -12 -12 -12 -12 -11 -11 -11 -11 -10 -10 -10 -10 -10 -10 -9 -8 -8 -8 -8 -8 -7 -7 -6 -4 -3 -3 -2 -1 -1 -0
-12 -12 -13 -13 -13 -13 -13 -12 -12 -12 -12 -11 -11 -11 -11 -11 -10 -10 -10 -10 -10 -9 -9 -9 -8 -7 -7 -7 -7 -6 -5 -4 -3 -3 -2 -2 -1 -0
-12 -13 -13 -13 -13 -12 -12 -12 -12 -11 -11 -10 -10 -10 -10 -10 -10 -10 -10 -10 -9 -9 -9 -8 -8 -8 -8 -7 -6 -6 -5 -4 -4 -3 -3 -2 -2 -1
-13 -13 -13 -13 -12 -12 -12 -12 -11 -10 -10 -10 -9 -9 -10 -10 -10 -10 -9 -9 -9 -9 -8 -8 -8 -7 -7 -7 -6 -5 -5 -4 -4 -4 -3 -3 -2 -1
-13 -13 -12 -12 -11 -11 -11 -11 -10 -10 -9 -9 -9 -8 -9 -9 -9 -9 -9 -9 -8 -8 -8 -8 -8 -7 -6 -5 -5 -5 -5 -5 -4 -4 -4 -4 -4 -3
-13 -12 -11 -11 -11 -11 -10 -10 -10 -9 -9 -8 -8 -8 -8 -8 -8 -9 -8 -8 -8 -8 -8 -8 -7 -7 -6 -5 -5 -5 -5 -5 -5 -4 -4 -4 -4 -4
-12 -12 -11 -10 -10 -10 -10 -9 -9 -8 -8 -8 -7 -7 -8 -8 -8 -8 -8 -8 -8 -8 -8 -8 -7 -7 -6 -6 -6 -6 -5 -5 -5 -5 -5 -4 -4 -4
Wind_Speed
6 6 4 4 5 6 6 7 10 18 18 8 6 6 6 7 16 15 13 24 31 32 32 33 34 34 33 32 33 33 34 34 34 34 34 33 33 33
6 6 5 5 6 6 7 7 8 13 17 12 9 8 9 13 20 15 14 29 29 31 33 33 34 34 33 33 34 35 36 36 36 35 35 34 34 34
7 6 7 8 7 7 8 8 9 10 16 18 14 10 10 11 13 8 12 10 14 28 33 35 35 35 35 35 36 36 36 36 35 34 34 34 34 34
8 7 7 9 10 9 9 9 11 11 13 18 17 13 13 13 11 9 12 14 11 28 34 34 34 34 35 35 35 35 34 34 34 34 34 34 34 34
8 7 7 9 11 10 12 12 10 12 10 15 18 15 14 11 11 12 14 12 17 21 26 28 30 33 34 35 34 34 34 34 34 33 33 33 34 34
7 7 8 9 11 12 12 10 11 13 12 14 16 15 13 9 10 13 17 10 12 15 21 24 27 31 32 33 34 34 33 33 33 32 32 32 32 33
8 8 9 15 20 17 16 14 14 14 15 15 16 16 13 11 12 13 18 16 12 11 12 13 13 13 16 24 29 31 32 33 33 32 32 32 32 32
9 9 11 14 18 24 28 27 25 20 18 17 17 17 16 14 14 16 17 19 17 8 11 15 12 15 13 12 25 33 33 34 34 34 34 34 33 32
10 11 13 15 19 13 21 26 23 29 26 18 17 17 18 18 19 19 18 19 20 15 14 18 12 15 14 18 31 33 34 35 35 35 34 34 34 33
10 11 12 12 15 20 18 17 15 14 17 15 14 15 16 15 16 18 19 18 16 13 12 17 15 15 17 14 28 33 34 34 34 33 33 32 31 31
10 10 13 13 24 30 22 18 15 13 21 26 26 25 29 29 23 16 15 14 17 15 10 12 15 15 15 16 20 29 30 30 31 31 32 32 30 28
9 9 17 22 28 30 19 14 16 18 17 17 18 21 18 19 24 16 14 15 16 13 9 7 13 12 10 9 9 10 15 24 30 32 32 32 31 20
12 10 11 27 29 28 25 14 21 22 14 15 15 15 14 13 13 14 14 14 15 15 13 11 13 13 12 11 9 10 11 13 15 19 25 29 29 24
12 11 14 27 28 27 20 22 27 22 13 13 13 14 13 14 14 15 17 16 16 18 19 18 14 14 14 15 12 8 10 12 13 15 14 19 22 27
12 21 24 26 24 18 21 25 21 13 13 13 14 14 12 13 14 14 15 15 16 16 15 16 15 13 12 12 10 11 12 12 11 11 12 12 11 11
12 15 22 22 19 19 18 16 12 13 14 13 14 13 13 12 13 13 14 14 13 13 10 11 12 12 10 10 11 13 13 9 12 14 12 9 8 7
15 8 9 12 11 12 13 12 13 13 14 13 14 14 15 14 14 13 12 13 12 13 12 10 10 9 8 7 8 11 13 12 11 10 7 6 6 5
16 11 12 12 13 14 14 15 14 14 14 14 14 14 14 14 15 14 12 12 12 12 11 10 10 7 5 4 7 10 9 9 10 10 8 8 10 10
11 11 12 13 13 13 13 14 14 14 13 13 13 14 13 13 13 13 13 12 12 11 11 10 8 6 6 7 8 12 11 9 11 11 11 9 10 13
10 11 12 13 13 13 13 13 14 14 13 13 14 13 13 13 13 13 12 12 12 11 10 9 8 7 5 6 6 7 16 13 11 12 11 10 12 16
12 12 12 13 13 13 13 13 14 14 14 14 13 13 13 12 12 12 11 15 12 8 9 8 8 13 7 5 5 7 10 18 20 15 12 10 12 17
13 13 13 13 13 13 13 13 13 14 14 13 13 13 12 12 13 12 10 10 9 8 6 6 8 8 6 7 8 8 10 12 17 26 29 25 14 13
13 13 13 13 13 12 12 13 15 14 14 13 13 12 13 13 11 9 9 8 7 7 5 6 7 6 6 6 6 7 10 11 11 14 18 27 30 30
Wind_Direction
295 296 293 290 292 287 287 289 297 305 303 294 284 245 249 263 287 292 278 292 298 299 299 298 294 290 288 288 289 289 288 286 285 284 283 280 278 276
298 302 300 294 292 292 290 286 282 288 295 298 294 278 275 291 295 292 285 295 297 298 297 296 293 291 289 289 289 289 288 286 283 282 280 279 277 276
299 303 295 297 301 301 296 291 285 281 289 297 298 294 283 279 286 270 277 275 284 294 296 294 291 290 289 289 289 288 286 284 282 281 281 280 278 276
292 293 293 311 309 306 300 291 289 281 283 293 300 300 293 289 290 286 298 296 288 293 294 293 292 291 291 290 289 287 285 284 284 282 281 279 277 277
285 284 289 303 307 303 298 294 291 295 289 294 296 297 294 295 300 298 292 289 294 296 297 296 293 292 291 290 290 290 289 287 283 280 277 276 274 274
278 274 279 291 298 299 300 295 303 302 297 295 296 297 295 295 296 304 305 292 291 294 292 291 291 293 291 292 290 289 287 284 280 277 274 273 272 271
285 275 282 304 309 309 309 311 307 303 304 304 303 302 303 308 306 304 303 301 290 286 288 286 286 282 284 284 285 284 282 280 278 276 277 276 275 273
306 301 299 305 307 314 312 308 307 308 308 305 305 306 308 305 304 302 303 302 300 292 286 292 287 284 281 276 280 282 282 281 280 278 277 276 274 271
314 310 313 315 316 300 301 307 307 306 306 307 306 304 303 306 305 303 301 299 297 299 298 294 287 283 283 282 285 284 283 282 280 277 274 271 268 266
306 302 302 304 308 311 310 311 305 306 305 305 297 299 303 302 300 301 299 297 293 289 284 288 291 288 288 283 285 283 282 281 279 277 274 270 266 262
298 300 310 308 310 316 320 317 318 312 312 311 311 310 309 309 308 307 303 302 299 297 288 283 288 290 287 283 280 282 283 283 282 280 277 273 268 262
304 299 314 318 318 323 326 325 320 315 317 319 315 311 307 304 308 306 301 297 296 297 290 279 289 296 293 270 262 269 278 281 281 280 277 272 266 260
321 319 315 321 325 329 330 323 314 321 325 317 312 309 309 308 306 304 299 294 293 290 292 294 292 292 289 293 289 277 275 276 279 277 274 268 261 251
320 316 318 326 330 330 328 321 324 329 320 314 312 313 313 310 308 305 299 294 287 286 289 290 290 293 296 297 300 294 289 284 280 276 269 264 259 248
317 321 327 330 330 327 322 325 329 322 317 316 315 313 309 304 306 305 302 297 291 287 285 285 290 294 292 291 293 294 304 302 291 284 279 269 254 241
320 326 331 329 328 325 325 324 322 317 320 316 314 311 310 310 311 311 310 312 309 307 295 287 295 298 296 286 284 290 299 296 300 301 295 284 269 247
334 331 327 328 327 326 324 323 323 323 321 318 315 315 315 315 314 315 311 312 312 315 321 320 314 306 279 265 286 298 308 311 308 313 315 324 326 326
339 331 327 325 324 324 323 322 322 321 320 317 315 314 314 315 315 316 316 317 319 320 322 323 328 331 328 287 271 311 328 331 337 345 352 357 4 359
338 328 325 323 321 319 318 317 317 316 315 313 312 313 312 313 315 316 319 322 323 324 325 327 333 336 342 342 328 338 354 354 356 3 6 9 10 9
331 326 322 319 317 316 316 315 314 314 314 313 312 312 312 313 315 316 319 322 325 327 329 334 341 344 333 318 314 327 360 17 11 8 3 11 21 23
328 323 318 315 314 313 312 312 311 310 309 310 309 310 312 314 313 313 317 323 329 328 332 336 331 338 332 330 357 9 14 27 39 33 16 13 29 39
323 319 315 312 312 311 310 310 310 309 309 308 307 309 310 311 310 311 316 320 324 326 321 324 333 347 3 19 22 17 24 31 38 43 45 47 48 48
319 316 312 310 309 308 309 308 307 305 304 303 304 306 308 309 307 310 314 317 322 327 329 337 347 357 5 11 17 24 28 32 39 49 51 52 59 63
Height
1445 1440 1436 1432 1428 1424 1419 1413 1406 1392 1380 1380 1380 1378 1376 1372 1368 1365 1360 1356 1351 1347 1342 1337 1333 1328 1324 1321 1318 1315 1312 1310 1307 1305 1304 1302 1301 1300
1439 1434 1430 1425 1420 1415 1410 1405 1401 1394 1380 1371 1370 1368 1365 1363 1360 1356 1350 1346 1341 1337 1332 1326 1321 1317 1313 1309 1306 1303 1299 1297 1294 1293 1291 1289 1288 1287
1432 1428 1423 1418 1412 1407 1401 1397 1393 1389 1380 1368 1363 1359 1355 1350 1346 1343 1339 1334 1330 1326 1321 1315 1309 1305 1300 1296 1293 1289 1286 1283 1281 1279 1277 1276 1275 1274
1426 1421 1416 1411 1405 1400 1395 1390 1386 1382 1376 1365 1356 1351 1346 1341 1335 1331 1328 1324 1320 1314 1308 1302 1297 1292 1287 1283 1280 1276 1273 1270 1268 1266 1264 1263 1262 1261
1420 1415 1410 1405 1399 1394 1389 1384 1380 1375 1369 1361 1351 1345 1338 1333 1327 1321 1317 1311 1306 1301 1295 1290 1285 1280 1275 1271 1267 1263 1260 1257 1255 1253 1251 1250 1249 1249
1414 1410 1405 1399 1393 1388 1383 1379 1373 1367 1360 1353 1344 1337 1331 1325 1320 1312 1303 1298 1293 1289 1284 1279 1274 1269 1264 1259 1255 1250 1247 1244 1242 1240 1239 1238 1237 1236
1408 1404 1399 1395 1390 1385 1379 1373 1367 1360 1353 1345 1338 1330 1323 1318 1312 1305 1296 1288 1282 1279 1272 1266 1262 1256 1250 1246 1242 1237 1234 1231 1229 1228 1226 1225 1224 1223
1402 1397 1393 1388 1383 1378 1373 1367 1361 1354 1346 1339 1331 1324 1317 1311 1304 1297 1289 1280 1270 1269 1263 1254 1252 1244 1239 1234 1229 1225 1222 1219 1217 1215 1213 1212 1211 1211
1396 1391 1386 1381 1376 1369 1363 1358 1353 1347 1341 1334 1325 1317 1310 1303 1297 1289 1282 1275 1266 1259 1254 1243 1239 1233 1228 1222 1218 1213 1209 1206 1203 1200 1199 1198 1197 1197
1391 1386 1380 1374 1368 1363 1356 1349 1343 1337 1332 1326 1319 1310 1304 1297 1291 1283 1274 1265 1257 1251 1247 1238 1228 1223 1216 1210 1205 1201 1196 1193 1190 1187 1185 1184 1183 1183
1386 1381 1376 1369 1363 1357 1350 1341 1334 1328 1322 1316 1310 1303 1296 1289 1282 1275 1267 1259 1249 1241 1238 1231 1221 1213 1205 1198 1193 1190 1186 1182 1178 1174 1171 1169 1169 1170
1379 1374 1370 1364 1357 1351 1343 1335 1327 1320 1313 1305 1299 1292 1286 1279 1274 1269 1262 1254 1244 1234 1228 1223 1214 1207 1195 1187 1183 1179 1174 1169 1164 1160 1156 1154 1154 1156
1374 1368 1362 1357 1351 1345 1338 1330 1323 1316 1308 1299 1291 1284 1278 1273 1266 1261 1255 1248 1240 1230 1223 1217 1209 1202 1195 1183 1174 1169 1164 1158 1152 1146 1141 1138 1138 1140
1371 1364 1357 1352 1345 1338 1330 1324 1318 1311 1302 1294 1287 1280 1273 1266 1260 1253 1247 1241 1234 1226 1218 1212 1205 1198 1190 1180 1170 1161 1155 1149 1143 1136 1131 1127 1125 1126
1366 1360 1353 1346 1338 1331 1325 1320 1313 1305 1298 1291 1284 1277 1270 1262 1254 1247 1239 1233 1226 1219 1213 1206 1200 1193 1186 1178 1169 1160 1151 1142 1137 1131 1125 1120 1116 1116
1360 1353 1347 1339 1333 1327 1321 1314 1308 1302 1296 1289 1281 1274 1266 1258 1251 1243 1235 1227 1219 1212 1208 1202 1195 1188 1181 1175 1169 1160 1152 1144 1135 1129 1122 1116 1112 1109
1355 1347 1340 1334 1327 1321 1316 1310 1304 1298 1292 1285 1278 1270 1263 1255 1248 1241 1233 1226 1219 1211 1203 1197 1192 1185 1179 1175 1167 1160 1152 1145 1138 1131 1123 1116 1110 1106
1350 1343 1337 1331 1326 1319 1313 1307 1301 1295 1289 1282 1275 1268 1261 1253 1245 1238 1232 1226 1219 1212 1205 1198 1191 1185 1181 1175 1171 1163 1156 1149 1142 1135 1128 1120 1113 1107
1346 1340 1335 1329 1323 1317 1311 1305 1298 1292 1286 1279 1273 1266 1259 1252 1245 1238 1231 1225 1219 1213 1206 1200 1195 1189 1184 1179 1174 1169 1163 1155 1148 1141 1134 1127 1120 1112
1343 1338 1332 1327 1321 1315 1308 1302 1295 1288 1282 1276 1270 1263 1257 1251 1244 1238 1232 1226 1220 1214 1208 1203 1198 1194 1190 1187 1181 1175 1171 1164 1156 1149 1142 1136 1128 1121
1340 1335 1329 1324 1318 1312 1306 1299 1292 1286 1280 1274 1268 1261 1255 1250 1244 1238 1233 1227 1222 1216 1211 1206 1202 1199 1196 1191 1187 1183 1179 1174 1168 1160 1153 1145 1140 1134
1337 1332 1326 1321 1315 1309 1302 1296 1290 1283 1278 1272 1266 1260 1254 1249 1244 1239 1234 1229 1224 1219 1215 1211 1207 1204 1200 1196 1193 1190 1187 1183 1178 1173 1167 1162 1157 1154
1335 1329 1324 1318 1312 1306 1299 1293 1287 1281 1275 1269 1263 1258 1253 1248 1243 1239 1235 1230 1226 1222 1218 1215 1211 1208 1205 1203 1200 1198 1195 1192 1189 1185 1182 1179 1175 1171